Find Local Weather

World > North America > United States > Georgia

Americus, Georgia Regional Weather

Lat: 32.07N, Lon: 84.23W
Wx Zone: GAZ104
Warning FLW WEATHER ALERT - (More Info. Click Here) Warning
Feedback
Expires:201809221800;;043354
ASUS42 KFFC 221710
RWRGA 
WEATHER ROUNDUP FOR GEORGIA
NATIONAL WEATHER SERVICE PEACHTREE CITY GA
100 PM EDT SAT SEP 22 2018

NOTE: "FAIR" INDICATES FEW OR NO CLOUDS BELOW 12,000 FEET WITH NO
SIGNIFICANT WEATHER AND/OR OBSTRUCTIONS TO VISIBILITY. 

* = USE WITH CAUTION. THE STATIONS MARKED WITH AN ASTERISK MAY NOT
REPORT WEATHER SUCH AS PRECIPITATION, FOG, OR THUNDER AND ARE NOT 
QUALITY CONTROLLED BY NWS.

THE REMARK "TC" DENOTES TEMPERATURE READING IN DEGREES CELSIUS.


GAZ059>098-102>109-221800-
CENTRAL GEORGIA
  
CITY           SKY/WX    TMP DP  RH WIND       PRES   REMARKS
AUGUSTA-BUSH   FAIR      87  66  49 VRB3      30.11F                  
AUGUSTA-DANIEL FAIR      87  66  49 E6        30.13F                  
COLUMBUS       FAIR      88  67  49 E5        30.09F HX  91           
MACON          FAIR      89  65  44 VRB5      30.10F HX  91           

  
CITY           SKY/WX    TMP DP  RH WIND       PRES   REMARKS
LAGRANGE*      FAIR      88  69  53 E3        30.11F HX  92           
SYLVANIA*      FAIR      87  70  57 E3        30.11F HX  92           
MILLEDGEVILLE* FAIR      88  64  45 E5        30.11F                  
$$


SKY/WX - Weather  TMP - Temperature  DP - Dew Point  RH - Relative Humidity
WIND - Wind Direction/Speed PRES - Barometric Pressure